User: anonymous   Login
Location: Clason Point
(40.8136°N, 73.8618°W)
Time: 01:55:16
(UTC+00:00)
Language:

Genesis I - Orbit

View from above orbital plane
View from above orbital plane
View from above satellite
View from above satellite

Ground track
Ground track

The orbit data is extracted from the following two-line orbital elements,

1 29252U 06029A   19325.84055028  .00000467  00000-0  32890-4 0  9992
2 29252  64.5192 263.7882 0031945 209.6716 150.2597 15.17925316736519
Epoch (UTC): 21 November 2019 20:10:23
Eccentricity: 0.0031945
inclination: 64.5192°
perigee height: 490 km
apogee height: 534 km
right ascension of ascending node: 263.7882°
argument of perigee: 209.6716°
revolutions per day: 15.17925316
mean anomaly at epoch: 150.2597°
orbit number at epoch: 73651

The dashed part of the orbit path shows where the satellite is in the earth's shadow,  

DLR